Weather History for Beaufort MCAS, SC

Change the Weather History Date:

Thursday, December 6, 2012

  Actual Average Record
Temperature  
Mean Temperature 58 °F -  
Max Temperature 64 °F 62 °F 81 °F (1998)
Min Temperature 51 °F 42 °F 28 °F (1937)
Degree Days  
Heating Degree Days 8    
Growing Degree Days 8 (Base 50)    
Moisture  
Dew Point 52 °F    
Average Humidity 82    
Maximum Humidity 96    
Minimum Humidity 63    
Precipitation  
Precipitation 0.00 in - - ()
Sea Level Pressure  
Sea Level Pressure 30.13 in    
Wind  
Wind Speed 4 mph (ENE)    
Max Wind Speed 10 mph    
Max Gust Speed 16 mph    
Visibility 9 miles    
Events      
Averages and records for this station are not official NWS values.
T = Trace of Precipitation, MM = Missing Value Source: NWS Daily Summary

Daily Weather History Graph

Daily Weather History Graph

Search for Another Location

Airport:

Trip Planner

Search our weather history database for the weather conditions in past years. The results will help you decide how hot, cold, wet, or windy it might be!

Date:

Astronomy

Dec. 06, 2012 Rise Set
Actual Time 7:11 AM EST 5:17 PM EST
Civil Twilight 6:44 AM EST 5:44 PM EST
Nautical Twilight 6:13 AM EST 6:14 PM EST
Astronomical Twilight 5:43 AM EST 6:44 PM EST
Moon No Moon Rise 12:22 PM EST (12/6)
Length of Visible Light 11h 00m
Length of Day
10h 06m
Waning Gibbous, 49% of the Moon is Illuminated
Dec 6
Waning Gibbous
Dec 13
New
Dec 20
First Quarter
Dec 28
Full
Jan 4
Last Quarter

Hourly Weather History & Observations

Time (EST) Temp. Dew Point Humidity Pressure Visibility Wind Dir Wind Speed Gust Speed Precip Events Conditions
12:56 AM 53.1 °F 52.0 °F 96% 30.12 in 10.0 mi Calm Calm - N/A   Clear
1:12 AM 51.8 °F 48.2 °F 88% 30.11 in 1.5 mi Calm Calm - N/A   Clear
1:15 AM 51.8 °F 48.2 °F 88% 30.11 in 0.8 mi Calm Calm - N/A   Clear
1:23 AM 53.6 °F 51.8 °F 94% 30.12 in 1.2 mi NNE 5.8 mph - N/A   Clear
1:25 AM 53.6 °F 51.8 °F 94% 30.12 in 3.0 mi North 6.9 mph - N/A   Clear
1:56 AM 55.9 °F 52.0 °F 87% 30.12 in 10.0 mi Calm Calm - N/A   Clear
2:56 AM 55.0 °F 52.0 °F 89% 30.12 in 10.0 mi Calm Calm - N/A   Partly Cloudy
3:56 AM 55.0 °F 53.1 °F 93% 30.12 in 10.0 mi NNE 4.6 mph - N/A   Mostly Cloudy
4:56 AM 57.0 °F 55.0 °F 93% 30.12 in 10.0 mi NNE 4.6 mph - N/A   Overcast
5:52 AM 57.2 °F 55.4 °F 94% 30.12 in 10.0 mi NE 3.5 mph - N/A   Overcast
5:56 AM 57.0 °F 55.0 °F 93% 30.13 in 10.0 mi NE 6.9 mph - N/A   Overcast
6:56 AM 57.0 °F 55.0 °F 93% 30.14 in 10.0 mi NE 6.9 mph - N/A   Overcast
7:03 AM 57.2 °F 55.4 °F 94% 30.14 in 10.0 mi NE 8.1 mph - N/A   Overcast
7:56 AM 57.0 °F 54.0 °F 89% 30.16 in 10.0 mi ENE 9.2 mph - N/A   Overcast
8:56 AM 57.9 °F 54.0 °F 87% 30.18 in 10.0 mi NE 10.4 mph - N/A   Overcast
9:56 AM 60.1 °F 53.1 °F 78% 30.18 in 10.0 mi NE 10.4 mph - N/A   Mostly Cloudy
10:09 AM 60.8 °F 53.6 °F 77% 30.18 in 10.0 mi ENE 6.9 mph - N/A   Mostly Cloudy
10:56 AM 62.1 °F 53.1 °F 72% 30.18 in 10.0 mi East 5.8 mph - N/A   Mostly Cloudy
11:56 AM 63.0 °F 52.0 °F 67% 30.16 in 10.0 mi Variable 6.9 mph - N/A   Mostly Cloudy
12:56 PM 63.0 °F 52.0 °F 67% 30.14 in 10.0 mi East 6.9 mph - N/A   Mostly Cloudy
1:56 PM 64.9 °F 53.1 °F 65% 30.12 in 10.0 mi East 8.1 mph - N/A   Mostly Cloudy
2:56 PM 64.9 °F 52.0 °F 63% 30.11 in - ENE 5.8 mph - N/A   Unknown
3:56 PM 64.0 °F 53.1 °F 67% 30.12 in 10.0 mi East 5.8 mph - N/A   Unknown
4:56 PM 63.0 °F 53.1 °F 70% 30.11 in 10.0 mi East 4.6 mph - N/A   Scattered Clouds
5:56 PM 61.0 °F 53.1 °F 75% 30.12 in 10.0 mi East 5.8 mph - N/A   Mostly Cloudy
6:32 PM 60.8 °F 53.6 °F 77% 30.13 in 10.0 mi East 8.1 mph - N/A   Mostly Cloudy
6:56 PM 60.1 °F 53.1 °F 78% 30.14 in 10.0 mi ENE 6.9 mph - N/A   Overcast
7:56 PM 57.9 °F 53.1 °F 84% 30.14 in 10.0 mi ENE 9.2 mph - N/A   Mostly Cloudy
8:56 PM 57.9 °F 51.1 °F 78% 30.14 in 10.0 mi ENE 8.1 mph - N/A   Overcast
9:07 PM 57.2 °F 51.8 °F 82% 30.14 in 10.0 mi East 10.4 mph 16.1 mph N/A   Overcast
9:48 PM 57.2 °F 51.8 °F 82% 30.14 in 10.0 mi ENE 6.9 mph - N/A   Overcast
9:56 PM 57.0 °F 51.1 °F 81% 30.14 in 10.0 mi NE 8.1 mph - N/A   Overcast
10:56 PM 55.9 °F 48.0 °F 75% 30.13 in 10.0 mi NE 10.4 mph - N/A   Overcast
11:56 PM 55.9 °F 48.0 °F 75% 30.11 in 10.0 mi ENE 6.9 mph - N/A   Overcast